Wind_Speed
41 42 42 42 42 42 41 42 42 42 42 42 43 43 43 43 43 43 43 42 42 42 43 44 44 44 43 42 40 39 38 36 34 32 31 32 31 31 34 36 38 39 37 36 35 34 33 32 32 31 30 30 30 31 30 30 30 30 30 28 25 21 19 20 21 23 20 21 27 29 32 35 33 24 16 23 29 27 28 27 25 19 15 17 17 16 17 17
42 42 42 42 43 42 42 41 42 42 42 41 41 41 42 42 42 42 43 42 42 42 42 43 43 44 44 43 41 40 38 37 35 31 32 33 31 30 32 35 36 38 38 37 35 34 34 33 32 31 30 30 30 31 30 30 30 29 28 26 22 19 20 23 25 26 22 24 30 31 34 34 28 23 20 24 27 26 27 26 24 18 14 17 19 18 16 16
43 43 43 43 43 43 42 41 41 41 41 41 41 40 40 40 40 41 42 42 41 41 42 42 43 43 43 43 42 41 39 38 35 32 34 34 31 29 31 33 35 37 38 37 36 35 34 33 32 31 31 30 30 31 30 30 30 29 28 24 20 20 23 25 28 28 24 27 31 33 36 32 23 21 21 23 24 25 25 24 22 20 17 17 19 20 19 18
44 43 43 43 43 43 43 42 41 40 41 41 41 40 39 39 39 39 40 40 40 41 41 41 42 43 43 44 43 41 40 39 36 34 36 34 31 30 30 31 33 36 37 38 37 35 34 33 32 32 31 31 31 31 30 30 30 29 28 23 21 24 27 29 31 30 28 30 34 37 36 28 21 20 20 21 23 24 23 23 23 22 22 20 20 21 21 22
44 43 43 43 43 43 43 42 41 40 39 40 40 40 40 39 39 39 39 39 39 40 40 40 41 42 43 43 43 42 41 40 38 36 36 34 31 30 29 29 31 34 37 37 37 35 35 34 33 32 32 31 31 31 31 29 28 29 27 24 25 29 32 33 34 35 35 35 37 38 33 27 25 23 21 20 23 24 24 24 24 23 23 22 23 23 23 24
43 43 43 42 42 42 43 43 42 40 39 38 38 39 39 39 39 39 39 38 38 39 39 39 40 41 42 43 43 43 42 42 40 37 35 34 32 30 28 28 29 32 35 36 36 35 35 34 33 33 32 32 31 30 30 28 28 28 26 26 28 31 33 34 37 39 37 37 38 36 30 29 29 26 22 21 23 26 25 24 23 23 24 24 25 24 24 25
43 42 42 42 42 42 42 43 42 41 39 37 36 37 37 38 38 39 39 39 38 38 39 39 39 40 41 42 43 43 43 42 40 36 35 35 34 31 29 28 28 30 33 36 36 36 35 34 34 33 33 32 31 30 30 28 29 28 26 27 30 31 33 34 37 38 35 34 34 32 29 30 28 22 21 23 26 27 27 25 23 23 24 24 23 23 24 25
42 42 42 42 41 42 42 42 43 42 40 38 36 35 36 36 36 37 38 39 39 39 39 39 39 40 41 42 42 43 42 41 41 38 37 37 35 33 30 29 29 29 31 35 37 37 36 35 34 33 33 32 31 30 29 28 28 27 26 28 31 33 33 33 36 37 31 27 28 28 27 27 24 21 23 26 27 28 27 25 21 22 23 23 21 21 22 23
42 42 41 41 41 41 41 42 43 43 42 39 38 36 35 35 35 36 36 37 38 39 39 39 39 40 40 41 42 42 39 40 44 42 39 38 36 34 31 29 29 28 29 33 37 38 37 35 34 32 32 32 32 32 31 30 28 27 26 28 32 33 33 34 36 35 29 23 25 25 23 22 22 24 27 28 28 27 26 25 21 22 23 22 21 20 21 21
43 42 42 41 41 41 41 41 42 43 43 41 40 39 38 37 36 36 36 37 38 39 39 40 40 40 40 40 41 40 39 43 47 44 40 38 36 34 33 31 29 28 29 31 35 38 37 34 33 33 33 34 34 34 33 32 31 28 27 29 31 32 33 34 35 35 28 23 21 21 21 20 22 27 30 28 28 27 25 24 22 22 22 22 22 22 22 21
44 43 43 42 42 41 41 41 41 42 42 42 41 40 40 39 38 38 38 38 38 38 39 40 41 41 41 40 40 39 41 45 47 45 41 38 36 35 34 32 30 29 29 29 32 35 37 36 35 35 35 35 35 35 35 34 33 32 31 32 33 33 33 32 34 33 26 20 17 18 19 21 26 31 30 27 28 27 24 22 22 22 23 23 23 22 22 22
45 44 44 43 43 42 42 41 41 41 41 41 41 40 40 40 40 40 40 40 40 40 40 40 41 41 41 41 39 39 43 46 47 47 41 38 38 37 36 34 32 30 30 29 30 33 36 38 38 37 36 36 35 34 34 34 34 34 34 34 34 34 33 31 32 31 24 19 18 18 20 23 27 30 29 27 27 27 24 21 22 23 23 24 25 24 24 24
46 45 45 45 44 44 43 42 42 42 41 41 41 41 41 41 41 41 41 42 42 42 41 41 42 42 42 41 38 39 43 46 47 47 40 37 38 38 37 35 33 31 30 29 29 31 34 38 40 38 37 37 36 35 34 34 35 36 35 34 33 33 32 31 30 28 23 20 20 20 21 23 22 23 27 28 27 27 23 20 23 25 24 25 26 26 26 25
47 46 46 46 46 45 45 44 44 43 43 42 42 42 42 42 42 42 42 43 43 43 43 43 42 42 42 40 39 41 44 46 47 46 40 37 39 40 38 36 34 32 31 30 30 30 32 36 40 40 39 38 37 37 38 37 35 34 34 34 33 33 31 29 28 26 21 20 21 20 21 22 18 19 26 29 27 25 22 20 23 25 25 26 27 26 26 25
48 47 46 47 47 47 46 45 45 45 44 43 43 43 43 42 43 43 43 43 43 44 43 43 43 43 43 40 40 43 45 46 47 45 40 38 41 41 38 38 36 34 33 31 31 30 31 34 37 40 41 39 39 40 40 38 36 34 33 33 32 31 29 27 27 24 20 20 21 20 21 20 17 19 26 29 27 25 24 22 21 23 25 25 26 25 26 25
48 48 47 47 48 47 47 46 45 45 45 44 44 44 43 43 43 43 43 43 43 44 44 44 43 43 42 40 41 44 45 46 46 44 40 40 43 42 41 40 38 36 35 33 33 32 32 33 34 36 39 40 42 41 38 36 35 36 35 32 30 28 26 26 26 23 21 21 22 20 19 19 16 19 26 30 29 26 25 23 22 24 25 24 24 26 26 26
48 47 47 47 48 48 48 47 46 46 45 45 44 44 44 44 43 43 43 43 43 43 44 44 44 43 42 40 41 43 44 44 43 41 40 41 43 44 43 41 39 38 37 35 35 34 33 32 31 33 35 38 41 40 38 37 36 35 33 31 29 27 24 25 26 24 20 21 23 20 17 18 16 19 26 31 30 25 23 25 27 26 24 24 25 26 25 25
49 47 47 47 48 48 48 48 47 46 46 46 45 45 44 44 43 43 43 43 43 43 44 44 43 42 41 40 40 41 44 44 42 41 41 43 44 45 44 42 41 40 39 38 37 35 34 33 32 32 33 34 35 37 38 38 35 31 29 27 26 25 23 23 26 25 20 19 20 16 15 18 17 20 24 30 29 24 24 28 30 27 24 25 25 23 22 23
51 48 47 48 48 48 48 48 48 47 46 46 46 45 45 44 43 43 43 43 43 43 43 43 42 41 42 41 41 43 46 47 45 45 45 45 45 45 45 44 43 42 42 41 39 37 36 35 34 32 30 28 29 32 33 32 30 29 27 24 24 24 22 21 24 23 19 18 15 11 14 18 19 22 23 28 28 25 27 31 31 27 25 24 21 21 22 23
52 50 48 48 48 48 48 49 48 48 47 47 47 45 45 44 44 44 44 43 43 42 43 43 42 43 44 44 44 45 48 48 47 47 47 47 46 46 46 46 45 44 43 42 40 39 37 36 34 31 27 25 27 29 28 27 28 29 28 25 22 22 20 18 21 21 19 17 12 10 15 18 22 24 25 29 30 26 29 33 32 29 25 22 21 23 25 24
54 52 50 48 48 48 48 49 48 48 47 47 47 45 45 45 45 44 43 42 41 40 41 41 42 42 44 45 44 46 48 49 48 48 48 47 47 47 47 47 47 45 45 43 42 40 39 37 34 31 28 27 29 29 27 27 27 29 30 28 23 19 17 17 17 18 17 14 9 12 20 20 24 25 25 30 31 28 29 31 30 28 26 23 23 25 26 25
55 54 52 49 48 48 48 48 48 47 47 46 46 45 45 45 45 44 43 41 40 39 39 39 40 40 42 45 45 45 47 48 48 48 49 49 48 48 48 47 47 46 46 45 44 43 41 38 34 32 30 30 31 29 26 27 28 29 29 32 28 19 15 15 15 16 17 12 7 15 24 23 25 25 25 30 31 29 29 28 26 26 27 26 26 26 26 26
55 55 55 51 49 48 48 48 48 47 46 46 45 45 45 45 44 43 42 40 38 38 38 38 39 38 40 44 44 44 46 48 49 49 50 51 49 48 48 47 46 46 47 46 45 44 42 38 34 33 32 32 32 28 27 27 29 30 29 32 30 22 20 18 13 15 17 10 7 18 28 28 28 24 22 26 27 29 29 27 26 25 25 26 26 26 26 26
56 56 56 53 50 49 48 48 47 47 46 45 44 45 45 44 43 42 42 40 37 36 35 36 38 37 37 42 43 43 44 47 48 48 49 49 47 47 47 46 46 47 47 46 45 44 42 38 35 34 33 33 32 30 29 29 30 31 29 30 29 24 24 17 10 14 17 13 12 23 30 31 30 21 19 25 26 30 32 28 26 26 25 26 25 24 24 22
57 56 56 55 52 49 48 48 47 47 46 45 44 44 44 43 42 42 41 39 36 34 34 36 38 36 36 42 44 42 43 45 46 45 45 46 45 46 46 46 46 47 46 46 46 45 43 40 37 36 35 34 33 31 30 30 30 31 29 29 29 26 25 18 12 15 19 20 19 29 33 31 29 20 19 29 30 33 35 30 28 28 27 26 24 22 20 19
57 56 57 55 53 50 48 48 47 47 46 45 44 44 44 43 42 40 38 38 34 31 33 34 35 34 36 42 43 42 43 42 42 43 44 45 44 44 46 46 46 45 45 45 45 46 44 42 40 38 37 36 35 33 31 30 31 31 29 28 29 27 27 25 17 17 23 25 19 26 33 30 26 21 23 31 32 34 36 33 33 31 27 24 21 19 17 18
56 55 55 53 51 51 48 48 48 47 46 45 43 43 43 42 40 36 36 37 32 28 31 32 31 31 34 40 41 40 41 40 40 43 45 46 44 44 46 47 46 45 45 45 46 46 44 43 42 40 39 38 37 35 32 31 32 30 29 29 28 27 28 31 26 22 25 28 21 23 33 32 24 21 25 30 33 36 37 35 34 29 23 20 20 19 19 19
54 53 51 49 49 50 48 47 47 46 45 44 42 42 41 38 36 35 36 36 30 27 30 29 29 30 33 38 40 38 37 37 39 42 45 47 45 44 46 47 46 45 45 46 46 45 44 44 43 41 40 40 38 35 32 32 33 31 29 30 29 27 29 33 30 25 27 30 23 23 34 35 26 22 26 31 35 39 38 34 32 28 23 23 22 21 21 21
51 48 44 41 42 46 47 46 45 45 45 44 42 40 38 36 35 35 36 34 29 28 28 28 29 31 35 39 38 37 37 36 37 40 44 46 45 45 46 46 46 44 44 45 45 44 43 43 43 42 41 40 38 35 33 34 33 31 30 29 30 30 32 35 32 25 27 33 28 27 32 32 30 28 28 32 37 39 36 34 34 32 27 25 23 20 20 20
46 43 39 36 35 38 44 44 44 44 44 43 41 38 36 36 36 36 34 31 29 28 27 27 28 30 33 38 37 36 37 37 37 40 44 44 43 44 45 45 45 44 44 45 44 44 43 41 41 42 41 40 38 36 35 36 34 32 31 30 33 34 34 36 35 28 29 36 35 35 33 30 32 34 30 30 35 37 35 35 34 33 29 25 23 22 22 20
41 40 37 34 31 33 40 43 42 43 43 41 39 38 37 36 36 35 31 28 29 28 25 24 26 27 31 34 35 34 36 38 39 42 45 43 42 44 45 46 46 46 46 46 44 44 43 41 41 42 42 41 40 38 37 37 36 34 32 33 37 38 35 37 37 33 32 35 34 33 29 27 31 36 35 31 33 37 36 34 33 32 30 25 22 22 22 20
37 38 34 31 28 31 38 40 40 41 41 40 39 37 36 36 35 31 27 27 29 26 22 21 22 25 29 32 32 32 33 37 40 43 45 43 42 44 46 47 48 47 48 47 45 45 44 43 41 40 40 40 40 40 40 38 37 36 35 36 39 41 39 40 40 37 35 34 31 28 26 27 30 36 39 35 33 38 36 33 32 31 27 23 20 20 19 19
33 35 33 31 29 30 35 38 38 37 36 37 37 36 37 35 29 25 24 27 28 22 19 20 20 22 27 29 31 31 32 34 38 42 43 41 41 42 43 44 46 46 46 46 46 45 44 43 42 39 38 41 41 41 41 41 40 38 38 39 41 43 44 44 42 38 35 31 26 24 24 27 28 33 40 38 34 37 36 33 34 32 25 20 18 17 16 16
31 32 32 31 28 28 31 33 33 34 35 37 37 37 35 30 25 24 24 24 25 22 18 18 20 22 24 25 27 30 33 34 36 40 42 42 41 41 42 43 44 44 43 43 44 44 44 44 45 43 42 43 42 40 39 40 40 38 37 38 41 44 46 45 42 39 36 31 25 22 24 28 31 34 38 40 36 33 32 32 34 32 24 19 18 18 18 17
31 30 29 27 25 26 27 27 28 31 35 37 37 35 29 26 27 29 27 23 22 22 18 15 16 19 21 22 25 29 33 35 36 39 41 41 40 41 42 43 43 43 42 42 43 43 43 43 44 44 42 40 40 39 38 38 40 39 37 39 41 42 44 45 43 39 34 30 29 29 30 31 35 35 35 38 39 35 31 30 33 32 25 19 19 20 20 20
29 28 25 23 23 24 23 25 26 30 35 35 32 28 26 29 31 32 33 28 23 23 21 17 15 16 19 22 26 30 33 34 35 37 39 38 38 39 40 40 42 42 43 43 42 41 41 40 40 40 39 37 37 38 37 36 39 41 41 41 40 38 38 41 44 41 32 27 30 34 36 35 35 35 34 37 41 39 36 35 35 33 26 21 20 21 21 21
25 25 22 21 23 21 22 25 27 30 33 31 27 27 30 33 33 34 34 29 25 24 22 19 16 13 17 23 27 31 33 33 35 37 38 37 37 39 39 38 40 41 42 42 40 39 39 40 40 40 35 33 34 36 38 39 39 40 40 40 38 36 35 34 38 41 35 28 31 36 37 36 35 37 38 39 41 41 42 42 39 33 29 25 22 22 22 22
22 21 20 21 20 19 23 26 28 31 30 29 31 33 35 36 34 33 33 29 27 26 22 19 17 13 15 21 25 29 32 34 35 35 35 35 34 37 38 38 39 40 40 42 39 34 36 38 39 39 33 31 34 34 34 38 40 40 36 36 39 40 37 34 34 39 41 36 34 37 38 39 38 39 40 39 40 41 42 42 38 32 30 28 26 25 24 23
19 19 19 19 18 20 25 28 29 30 30 34 37 37 39 38 34 33 34 32 29 27 21 20 21 21 20 20 19 22 29 33 34 34 33 31 29 33 36 37 39 39 40 43 40 33 32 34 34 34 33 32 33 35 35 35 38 40 35 34 40 41 38 37 35 35 40 40 39 41 41 42 42 43 42 40 39 39 39 38 36 32 31 31 30 30 27 24
17 16 15 16 17 21 26 28 28 30 34 39 42 43 42 38 34 33 34 33 30 28 24 22 25 26 25 25 20 18 25 32 31 29 28 26 22 25 31 34 37 38 39 42 41 35 31 31 30 30 33 33 34 39 40 35 35 41 39 38 43 42 36 36 36 32 32 36 41 45 46 45 44 43 44 44 41 38 38 39 39 36 33 32 32 31 29 26
14 12 10 13 18 24 26 27 30 36 42 47 47 45 40 34 32 31 32 33 31 30 28 26 28 29 28 28 25 20 24 30 28 25 25 23 19 19 24 29 34 37 39 41 42 37 30 30 30 28 30 34 36 36 32 29 32 39 39 38 42 42 36 35 37 34 31 31 35 39 42 44 43 42 43 45 43 41 40 41 41 38 34 32 31 31 30 28
11 11 10 12 19 25 27 30 37 44 49 51 47 41 34 30 32 33 32 34 33 32 33 31 29 31 31 31 30 27 28 30 28 25 24 21 19 19 19 21 26 34 39 40 42 38 30 29 31 31 31 31 29 26 22 25 34 37 37 35 37 41 39 35 37 38 35 33 30 29 32 35 38 39 42 44 42 39 38 38 38 37 35 33 31 30 30 28
13 14 15 15 20 27 33 39 45 49 52 49 41 35 29 27 33 34 29 32 33 31 33 34 31 33 34 34 33 33 34 32 27 23 20 19 19 19 17 17 20 30 38 40 40 38 31 30 33 34 34 28 21 19 20 28 39 41 38 35 36 41 42 38 38 37 35 33 29 26 27 30 32 35 39 41 38 34 33 33 32 34 35 34 32 30 29 29
17 16 17 18 23 31 39 44 47 49 50 43 33 30 26 26 32 31 25 30 33 30 30 35 35 35 37 37 36 35 35 33 26 19 17 18 20 19 17 17 19 26 36 40 40 38 34 34 36 36 34 29 25 23 25 35 47 46 40 37 37 42 44 42 40 37 33 31 28 27 29 29 30 31 34 37 34 29 29 29 28 30 33 35 33 31 30 30
16 18 19 20 26 34 41 46 49 51 47 36 28 26 24 24 30 29 25 28 31 29 30 36 38 38 38 39 37 36 36 35 31 25 20 19 20 20 18 19 18 19 28 36 38 37 35 35 37 37 36 34 32 31 30 37 48 47 40 38 39 41 41 40 41 40 37 33 30 31 34 32 31 30 31 33 31 27 27 27 27 27 31 34 35 33 32 31
17 20 21 22 27 34 41 46 50 48 41 32 27 26 24 23 27 29 27 25 26 30 34 38 40 39 39 39 37 35 36 37 35 32 27 22 22 23 25 26 24 20 24 32 36 36 34 34 35 36 37 35 32 30 27 32 42 45 40 38 38 38 37 34 33 36 38 35 31 34 37 36 34 31 31 32 31 28 26 27 27 26 28 34 37 35 33 32
16 18 21 25 30 36 41 44 44 41 35 30 27 26 24 23 25 28 29 26 27 32 36 40 42 40 39 40 38 34 34 36 36 35 32 28 24 24 31 35 33 28 27 31 35 34 33 33 35 37 39 35 28 25 24 28 36 41 40 39 38 34 33 33 30 31 34 34 32 34 39 39 37 34 33 33 32 28 24 24 25 23 24 30 34 35 34 33
15 17 21 26 30 34 37 37 36 35 31 27 25 23 21 23 26 27 28 27 29 33 35 38 43 41 40 41 39 36 35 35 36 34 33 31 26 26 33 37 37 34 31 32 35 35 35 35 35 38 39 34 26 25 28 31 32 34 36 40 40 34 32 36 36 33 32 33 34 34 36 38 38 36 35 34 32 29 25 23 24 24 25 26 29 33 35 35
19 18 20 26 31 34 35 33 32 32 28 23 21 20 18 20 25 26 27 28 29 31 31 34 39 40 40 42 40 37 36 35 35 33 30 29 27 31 38 39 37 36 34 34 36 36 38 39 38 38 37 35 31 31 34 36 32 29 32 41 46 41 36 38 41 38 33 33 36 37 36 36 37 37 36 33 29 26 25 23 23 25 27 27 28 32 35 35
22 19 21 27 31 32 33 32 31 31 26 19 17 19 18 19 21 22 26 28 29 30 29 31 36 38 39 42 40 38 38 38 36 33 29 27 29 36 42 39 36 38 37 38 38 38 39 41 41 39 37 37 36 35 36 37 35 31 33 41 46 42 36 37 41 42 38 35 37 40 40 38 37 37 35 32 28 24 23 22 21 23 25 27 29 32 34 34
23 23 26 29 29 27 28 30 28 26 22 16 15 18 18 17 17 18 21 25 28 32 32 32 35 36 38 40 38 38 40 40 38 34 29 27 30 38 43 39 36 37 36 38 40 39 38 41 42 39 37 37 38 36 35 34 33 32 34 39 40 38 36 37 39 41 42 42 40 41 42 41 39 36 32 28 26 25 24 23 22 22 23 25 29 33 34 34
27 28 29 28 26 26 27 27 25 22 19 15 15 17 16 14 14 16 19 22 26 30 32 33 33 34 37 38 35 35 36 37 38 35 27 25 28 34 39 39 37 36 34 36 38 36 35 38 39 37 36 36 37 37 34 33 32 33 33 35 37 39 40 39 38 39 44 48 45 40 39 40 41 39 33 27 25 25 25 25 23 23 24 25 28 33 35 35
Wind_Direction
274 272 270 268 266 265 264 263 261 260 258 257 256 255 254 254 253 252 252 251 249 247 246 246 246 244 243 243 242 243 243 245 245 246 249 249 247 243 241 239 237 236 235 234 234 233 232 232 233 234 234 233 231 230 228 228 229 231 233 234 233 229 226 217 214 216 209 217 227 228 234 236 239 240 234 242 247 243 247 252 253 256 251 243 244 249 255 254
275 273 271 268 266 264 264 263 262 260 259 257 255 254 253 252 252 252 251 250 249 247 246 245 244 243 242 242 241 241 241 242 243 244 247 247 245 243 241 239 237 235 233 232 232 231 230 230 230 231 231 230 230 228 227 226 227 229 230 231 225 213 211 211 212 213 203 213 228 231 234 237 240 243 239 244 248 243 246 252 254 255 251 246 247 248 254 254
275 273 272 269 265 263 262 262 261 260 259 257 255 254 252 251 250 250 250 250 249 248 246 244 243 243 242 241 240 240 239 240 240 241 244 244 244 242 240 239 236 234 232 231 230 229 229 228 228 227 228 228 228 227 225 224 224 225 225 223 212 197 201 209 213 212 204 212 227 233 235 235 236 239 235 238 243 241 244 251 250 248 246 243 243 246 251 256
273 273 271 269 266 262 260 260 260 260 258 257 255 254 252 251 250 250 250 250 249 248 246 244 243 242 241 240 239 238 238 238 237 238 241 242 242 241 240 239 236 233 231 229 229 228 227 227 227 226 226 226 226 226 224 222 222 222 221 212 197 194 200 207 213 214 209 215 225 231 236 235 231 228 223 228 239 240 237 240 241 241 242 242 241 243 248 253
273 272 270 268 265 262 259 258 258 259 257 256 255 254 253 251 250 249 249 249 249 248 247 245 243 242 240 240 238 237 236 237 235 235 239 241 241 241 240 239 236 233 231 228 227 227 226 225 225 225 224 225 225 225 224 221 219 220 217 204 194 201 209 210 215 219 215 216 224 230 234 234 229 222 220 226 238 241 233 231 238 240 241 244 245 246 248 250
273 271 269 268 265 262 259 256 256 257 256 255 255 254 253 252 251 250 249 248 248 248 247 245 243 241 240 239 238 237 235 236 234 233 237 240 241 240 239 238 236 234 230 228 226 226 225 224 224 224 223 224 224 223 223 219 217 217 211 204 204 207 213 214 219 226 224 219 224 231 231 231 231 225 227 236 239 242 237 230 232 237 241 244 247 248 249 250
273 270 268 266 264 261 259 255 253 254 254 254 253 253 253 252 251 250 249 248 247 247 246 245 243 241 240 239 238 236 235 235 234 232 234 238 238 237 236 236 235 233 230 226 225 225 224 223 223 223 222 223 223 223 222 219 216 215 209 208 210 208 213 220 226 233 233 227 230 237 231 230 235 234 236 240 240 242 241 235 228 233 243 247 249 248 248 249
273 270 267 265 263 261 258 255 252 251 252 252 251 252 252 251 251 250 249 248 247 246 246 245 243 241 240 239 237 236 235 235 234 229 230 233 235 235 233 233 233 232 229 225 223 223 223 222 221 222 222 222 221 221 220 219 215 212 209 209 213 211 211 220 230 236 238 235 238 240 234 230 232 235 236 234 236 241 244 243 233 231 241 246 249 248 248 251
273 269 266 264 262 260 257 255 252 250 250 250 250 250 251 251 251 250 250 248 247 246 245 244 243 242 240 239 237 236 234 235 234 228 226 229 232 233 232 231 232 231 229 226 223 222 221 221 220 220 222 221 220 220 218 216 213 209 207 209 216 217 212 216 228 235 235 234 238 240 238 230 225 230 234 231 232 236 241 247 239 232 238 243 244 245 248 251
273 269 265 263 261 259 257 254 252 250 249 249 249 250 250 251 251 251 250 249 248 246 245 243 243 242 240 239 237 235 232 233 234 230 225 226 230 233 232 230 230 230 228 226 223 221 220 220 220 219 220 220 219 219 217 214 211 205 202 207 215 219 218 218 226 232 229 222 224 231 231 218 213 225 234 234 235 236 237 245 243 236 237 241 242 244 247 248
273 268 264 261 259 257 256 254 252 250 249 249 248 249 249 250 250 250 250 249 248 247 245 243 242 241 240 240 237 233 231 232 234 231 224 223 227 230 231 229 227 227 227 226 223 220 218 218 218 218 219 220 220 220 218 216 212 205 203 207 212 218 220 221 228 233 230 219 215 223 223 208 205 217 229 235 237 239 235 239 245 242 239 240 242 244 245 246
272 268 264 260 258 256 254 253 252 250 249 248 248 248 249 249 249 249 249 249 248 247 246 244 242 240 240 240 236 231 231 232 233 232 225 221 224 227 229 228 226 225 225 225 223 219 217 217 218 217 218 219 220 222 221 220 217 213 210 211 214 219 221 222 228 233 229 220 217 221 219 214 213 215 226 236 235 236 232 229 239 241 238 239 240 244 246 247
271 267 263 259 256 254 253 252 251 250 249 249 248 248 249 249 249 248 248 248 248 247 246 244 242 240 239 238 234 230 231 232 232 232 226 221 224 225 226 227 225 224 224 224 222 219 216 216 218 217 218 219 218 219 220 221 222 221 218 216 217 221 224 224 228 232 229 223 222 224 222 224 222 210 220 236 236 236 232 223 232 238 237 240 242 244 247 248
271 266 262 259 256 254 252 251 250 250 249 249 249 249 249 250 249 248 248 247 247 246 245 244 242 240 239 235 230 229 231 231 232 231 224 220 224 225 225 226 225 223 223 223 222 219 216 216 217 217 218 219 219 218 218 217 219 222 224 222 222 224 226 228 231 233 231 229 228 228 227 227 220 203 216 233 238 239 235 224 229 236 237 239 242 245 248 249
270 265 261 258 256 253 251 250 249 249 249 249 250 250 250 250 249 248 247 246 246 245 245 244 242 240 238 232 228 229 230 230 231 229 224 220 223 224 223 224 224 223 222 221 221 219 217 217 216 217 217 218 220 221 221 219 218 220 223 224 225 228 229 230 233 234 232 230 229 228 230 227 212 199 213 230 238 238 236 229 226 234 238 238 241 244 246 247
269 265 261 257 255 253 251 250 248 248 248 249 249 250 250 250 249 249 248 246 245 245 244 243 241 240 238 231 227 229 231 230 230 228 223 220 223 223 221 222 222 222 221 220 220 218 216 216 215 216 216 218 220 222 223 223 221 221 221 223 223 226 230 231 231 231 232 231 228 226 229 228 209 195 210 227 236 236 234 234 231 234 239 240 240 242 243 244
267 264 260 257 254 252 251 249 248 248 248 248 248 249 250 249 249 248 247 246 244 243 242 242 241 240 237 231 228 230 232 231 229 228 224 221 223 222 220 220 220 220 221 220 219 218 216 216 215 215 216 218 220 222 223 222 222 223 223 223 223 223 225 230 230 225 228 232 232 229 225 230 212 188 208 227 235 237 235 238 238 233 235 240 241 242 242 241
266 262 259 256 254 252 250 249 248 248 248 248 248 248 249 249 248 247 246 245 244 242 241 240 240 239 236 231 227 226 229 229 226 225 224 221 223 222 220 219 219 219 220 219 218 217 216 215 214 214 215 217 217 219 221 221 222 224 225 226 226 226 225 230 232 225 222 227 232 230 218 224 207 182 208 234 237 236 235 237 238 231 230 238 241 242 243 244
266 262 258 255 253 251 250 249 248 248 248 248 247 247 247 247 247 246 245 244 243 241 240 239 238 236 234 231 225 223 224 225 222 220 221 219 221 221 220 218 218 218 219 219 218 217 216 215 213 212 212 213 215 218 220 219 220 222 223 224 225 226 226 231 234 228 224 226 229 219 208 218 207 187 207 237 241 234 234 238 236 232 230 233 238 240 242 245
265 262 258 255 253 251 249 248 247 247 247 247 247 247 246 246 245 245 244 243 242 240 239 238 235 232 231 228 224 222 222 223 220 219 219 218 219 220 219 218 217 217 218 218 219 218 217 215 214 212 212 212 215 218 218 217 218 218 216 215 220 222 220 225 231 230 224 224 228 204 203 210 202 198 208 227 239 236 234 237 236 234 233 231 234 236 239 242
263 261 258 254 252 250 249 248 247 246 246 246 246 246 245 245 244 243 243 243 243 242 241 240 237 233 232 230 225 222 222 222 219 217 218 218 218 219 218 218 217 216 217 218 219 219 217 215 212 211 211 212 215 217 215 213 215 217 213 208 205 205 212 217 222 234 228 218 223 202 203 201 193 204 214 219 232 238 238 241 239 239 237 235 235 233 236 239
260 260 257 254 251 249 248 247 246 245 245 245 245 244 244 242 242 241 240 240 240 240 240 240 238 233 231 231 228 224 222 222 220 216 216 217 217 218 218 218 217 217 217 217 218 218 216 214 211 211 211 211 215 215 210 211 213 215 215 210 200 185 187 190 196 234 240 224 224 203 199 193 185 197 211 217 230 239 242 248 247 246 244 242 241 234 233 237
257 257 256 253 250 247 246 245 244 244 243 243 242 242 241 240 240 240 239 239 238 238 237 236 235 230 228 231 230 226 223 222 221 217 216 216 215 217 218 217 217 217 217 217 218 219 218 215 212 212 212 211 214 214 208 209 213 213 215 214 204 179 163 166 186 235 243 232 222 199 190 185 183 190 209 223 237 243 247 253 251 252 250 247 246 238 235 240
253 252 253 251 247 245 243 243 242 241 241 240 240 239 239 238 238 238 237 237 235 237 237 235 233 227 224 229 229 226 224 222 221 218 218 217 214 216 218 217 217 218 218 218 218 219 219 217 216 215 214 213 213 212 208 208 212 213 214 214 205 180 160 164 206 238 233 222 201 187 182 183 189 196 220 231 241 247 250 251 249 251 252 252 252 245 242 246
249 248 248 248 245 242 240 239 239 238 238 237 237 236 236 236 236 235 236 236 232 232 234 233 232 224 219 225 226 224 223 222 221 219 218 219 216 216 218 217 217 218 217 218 218 219 219 217 217 215 215 215 213 211 208 208 212 213 213 214 207 184 156 158 212 235 230 223 198 183 181 185 193 203 226 230 233 241 245 249 251 253 256 258 258 252 247 246
245 244 244 244 244 240 237 236 235 235 235 235 234 234 234 234 234 233 234 235 231 230 233 233 230 223 219 224 225 223 221 219 219 219 217 217 216 216 218 217 217 217 217 218 218 218 218 217 216 214 214 215 214 212 207 207 213 212 210 211 210 194 164 157 189 223 236 237 218 196 191 188 190 201 222 228 231 239 246 251 253 256 260 261 257 251 246 243
240 239 240 240 240 238 234 232 232 232 232 232 231 231 232 231 232 231 231 232 228 227 232 232 229 222 221 225 225 223 222 218 216 216 215 215 213 214 217 217 216 216 217 218 218 218 218 217 216 213 214 214 213 211 207 207 211 212 208 204 209 206 174 160 175 202 231 239 238 221 202 190 188 201 218 227 234 240 245 250 254 257 255 247 241 241 242 241
236 235 235 235 236 235 231 229 229 229 229 229 229 229 230 229 229 228 227 229 225 223 228 228 224 217 216 222 223 221 221 217 216 216 215 214 211 211 215 215 214 215 217 218 217 217 217 218 217 213 214 214 212 210 207 208 210 209 206 201 204 201 171 164 179 195 219 230 232 219 199 191 194 207 221 226 231 236 243 253 258 254 245 238 238 237 236 239
233 231 230 229 231 232 228 225 226 226 225 225 225 226 227 226 225 224 224 225 224 222 225 225 221 215 214 219 219 216 216 213 214 216 217 215 211 211 213 214 214 213 216 217 217 217 217 219 219 215 215 215 213 211 208 210 210 206 205 200 198 190 170 175 188 192 213 224 225 217 208 204 202 209 224 231 234 239 245 254 257 254 246 242 242 238 236 241
227 223 220 220 223 228 226 222 222 222 222 222 222 221 221 221 221 221 221 220 222 223 222 223 222 216 215 219 217 214 213 209 209 213 216 214 212 212 213 213 214 212 213 215 216 217 216 217 220 218 214 214 214 213 210 211 211 205 202 196 192 187 177 185 191 188 207 222 225 225 226 224 209 207 221 234 241 246 247 251 258 261 257 250 247 245 243 247
217 213 211 212 216 224 224 220 219 218 218 218 218 217 216 217 217 217 214 213 220 224 220 219 220 216 215 218 218 215 212 208 207 212 215 211 208 211 212 212 213 211 212 213 213 215 215 213 217 218 215 214 214 213 211 212 212 205 200 195 191 188 187 193 194 190 200 214 223 226 229 231 219 213 219 229 240 246 247 251 258 263 263 258 254 252 250 250
206 206 202 200 206 219 222 218 215 215 215 215 214 213 212 214 214 212 207 208 216 221 218 214 214 214 214 215 216 215 214 210 207 212 215 211 207 209 211 212 213 212 212 213 211 213 215 212 212 216 218 217 215 214 211 210 212 207 198 197 195 191 192 197 195 193 196 204 217 225 228 232 228 220 219 225 236 242 246 252 255 256 259 257 250 248 250 248
196 197 193 191 199 214 217 213 211 209 210 211 211 210 210 211 205 199 200 206 209 208 212 214 207 209 213 212 212 210 210 211 211 214 215 212 208 208 210 212 214 213 213 214 213 211 213 213 209 210 215 218 216 214 212 211 212 208 201 200 199 193 195 198 195 194 196 200 211 223 225 226 224 219 218 221 232 240 244 250 251 251 253 250 245 246 248 245
182 183 185 189 199 213 213 210 207 203 203 206 207 206 206 200 186 183 189 200 204 196 197 208 205 207 210 207 207 207 206 207 209 215 216 212 208 207 209 210 213 213 212 215 216 212 213 213 212 210 212 217 215 213 213 213 213 210 204 204 204 198 197 198 194 192 195 201 208 214 216 216 215 216 215 216 225 237 243 247 249 252 254 248 246 253 256 250
170 173 179 185 199 212 210 206 203 199 199 201 203 203 195 181 174 176 174 179 193 187 181 192 199 206 208 199 199 203 205 204 206 212 216 213 210 209 209 209 210 210 209 212 215 215 215 216 217 215 214 215 216 214 213 212 213 210 200 201 208 206 200 198 197 194 196 204 211 213 214 214 213 216 215 214 220 231 241 245 247 251 254 252 252 258 258 251
168 170 169 179 201 210 203 198 197 196 196 196 196 189 175 169 172 173 170 172 179 175 174 185 193 204 205 195 193 197 199 201 204 211 215 212 210 211 210 209 210 209 208 210 212 213 214 214 216 217 215 215 215 213 212 212 213 210 203 203 208 208 202 199 199 198 196 204 211 212 212 212 213 217 218 215 218 227 236 240 243 247 250 253 255 255 251 245
162 161 164 185 205 205 194 191 191 193 192 186 175 166 165 169 171 172 171 170 170 170 172 182 188 197 198 191 190 192 193 194 200 210 214 209 207 210 210 209 210 209 208 209 209 210 211 208 210 214 213 214 216 212 210 212 210 207 209 210 202 197 199 200 200 201 199 199 204 205 206 209 215 220 221 220 222 226 231 238 244 247 248 249 251 251 248 241
154 160 175 196 204 196 185 184 186 188 182 166 159 161 163 162 163 167 167 163 166 169 170 176 174 168 181 186 186 188 187 189 196 206 213 210 206 209 210 208 209 208 207 207 204 204 207 206 208 212 208 209 218 217 211 214 213 206 206 205 195 191 197 200 200 204 204 202 202 205 206 209 214 220 223 225 227 229 232 238 245 249 249 249 250 250 249 245
162 171 186 198 197 186 178 178 181 178 166 156 155 157 155 155 159 163 163 164 169 169 171 179 171 161 168 170 173 186 185 185 194 202 208 209 205 207 209 208 209 207 204 204 199 195 201 205 205 206 204 207 218 221 217 218 217 206 195 192 195 196 200 202 203 206 208 208 209 211 212 213 216 219 222 225 229 234 238 243 247 251 253 252 250 249 248 248
166 175 188 193 185 177 174 174 172 162 154 151 151 150 151 154 158 160 163 167 168 169 174 177 170 164 166 161 161 180 182 183 194 199 202 205 204 206 207 206 208 206 203 203 199 192 193 200 202 197 198 208 219 224 224 220 212 202 192 187 195 200 201 204 209 210 210 212 214 218 220 222 223 222 222 223 226 231 236 240 245 248 250 250 249 248 248 249
163 167 176 179 175 171 168 163 155 149 148 148 147 149 151 152 155 158 164 166 166 170 172 169 167 165 162 159 159 167 175 183 191 192 192 197 198 202 205 203 204 203 201 201 199 193 186 191 196 193 196 210 222 226 224 216 207 204 197 189 192 199 200 203 210 213 213 213 216 222 227 228 227 225 224 226 227 228 230 234 238 242 243 243 245 246 248 249
154 149 145 161 169 164 156 149 146 145 147 146 146 149 151 154 157 158 163 166 166 170 170 168 167 164 159 159 162 164 167 178 187 187 187 191 193 197 199 199 199 199 200 201 198 193 187 186 192 196 198 207 218 221 216 208 201 198 194 188 189 197 201 203 209 212 213 214 217 223 229 231 228 226 228 232 232 231 233 234 236 238 238 238 241 243 244 247
129 136 142 156 161 152 146 145 145 147 149 146 144 147 150 157 160 158 162 168 164 163 170 173 170 165 161 162 167 168 167 173 182 186 188 190 192 193 191 191 191 192 196 199 196 191 188 186 190 198 202 201 204 209 204 197 193 190 190 189 188 195 201 205 208 209 212 215 217 222 229 231 229 228 231 234 236 237 239 242 242 241 237 235 237 240 242 243
118 130 136 147 154 147 144 145 147 150 149 142 138 145 149 157 164 162 162 168 162 154 166 176 172 167 167 166 169 173 171 171 171 174 185 190 189 188 183 181 181 185 191 194 194 192 189 188 189 196 202 196 186 191 194 192 192 194 194 194 194 197 202 209 209 207 209 211 213 222 230 232 232 231 233 235 238 240 242 244 244 241 236 233 235 238 237 237
120 130 132 143 152 149 146 147 150 152 146 137 135 144 150 160 168 167 165 168 164 155 163 174 172 170 171 169 171 175 172 166 164 169 181 191 189 179 168 166 168 178 187 189 192 194 192 192 193 196 201 198 190 192 194 191 195 198 194 195 200 199 200 207 209 206 205 204 209 221 230 233 234 234 235 239 242 241 239 239 239 238 234 230 231 233 232 230
122 132 138 148 151 149 149 151 154 153 146 137 134 139 148 161 170 172 170 171 167 158 162 171 173 173 172 170 174 176 169 164 166 171 179 190 191 173 159 161 167 175 184 186 192 197 194 195 198 200 205 204 197 196 194 192 199 201 193 192 201 204 201 202 206 209 209 205 208 218 225 229 233 235 237 241 245 242 236 235 236 237 233 228 226 227 227 224
122 129 137 147 151 152 154 156 157 154 144 135 131 132 142 157 169 176 176 178 177 166 164 172 176 175 174 173 175 173 166 165 169 172 177 185 188 177 166 166 170 177 185 188 193 198 197 196 197 201 208 207 197 195 194 191 199 204 201 199 201 204 204 199 198 208 214 213 216 219 221 224 230 234 236 239 243 242 235 230 230 231 230 227 225 224 221 219
131 130 134 146 152 154 156 158 159 153 142 133 130 128 138 157 168 175 180 187 187 174 169 174 178 177 175 175 175 172 170 172 173 174 178 178 179 181 176 171 170 176 184 189 194 199 200 198 197 199 205 204 193 193 195 192 195 201 205 205 201 200 203 201 199 204 213 220 227 227 224 224 227 232 236 239 241 241 236 230 228 228 227 227 225 222 217 215
130 129 140 150 153 156 158 160 159 153 143 134 131 127 136 160 170 174 181 189 191 182 173 174 177 178 177 177 177 174 174 178 179 180 182 176 172 178 179 177 175 176 182 189 196 201 202 202 201 198 201 201 193 193 197 195 195 198 201 202 200 200 204 202 200 204 207 214 223 227 228 228 227 230 234 237 238 239 237 233 230 230 229 227 224 219 215 213
133 137 150 154 153 156 161 160 157 155 148 137 136 137 141 160 174 181 185 186 188 184 176 173 178 182 180 179 178 176 177 181 183 182 183 179 175 174 175 179 181 179 182 189 197 203 204 205 204 198 197 201 198 196 197 194 194 197 197 196 196 198 202 202 200 203 205 207 215 221 225 228 228 229 232 235 237 237 235 233 233 233 230 227 222 216 211 210
133 138 145 149 150 154 159 158 154 154 150 138 139 147 152 162 176 187 191 189 189 188 183 178 179 183 184 183 183 181 180 183 184 182 183 184 179 175 176 180 185 185 186 191 197 203 204 204 205 200 197 201 201 199 199 197 197 198 196 197 197 196 200 202 203 205 208 211 215 218 222 226 229 230 233 237 239 239 239 239 240 239 232 226 220 212 207 208
127 130 134 141 148 152 154 154 150 146 145 139 144 156 163 166 173 185 194 196 196 195 193 187 181 181 185 187 188 188 186 187 185 182 184 185 182 182 184 186 188 191 193 195 200 208 208 205 207 205 202 203 204 204 204 203 203 202 200 201 200 197 199 204 206 208 209 211 215 219 222 226 229 230 232 237 242 245 245 243 239 233 224 219 217 213 209 210
Height
5721 5721 5721 5721 5721 5721 5722 5722 5723 5723 5724 5725 5726 5727 5728 5729 5730 5731 5732 5734 5736 5738 5739 5741 5744 5746 5748 5750 5752 5755 5757 5760 5762 5765 5766 5766 5768 5770 5772 5773 5775 5778 5781 5784 5786 5789 5791 5793 5796 5798 5800 5802 5804 5806 5808 5810 5812 5814 5816 5819 5823 5827 5828 5828 5829 5831 5832 5832 5832 5835 5836 5836 5840 5846 5848 5844 5844 5846 5846 5848 5849 5852 5854 5854 5855 5855 5856 5858
5716 5715 5715 5715 5715 5716 5716 5717 5717 5718 5719 5720 5721 5722 5723 5724 5725 5726 5727 5729 5731 5733 5734 5737 5739 5741 5743 5746 5748 5750 5753 5756 5758 5762 5762 5762 5765 5767 5768 5769 5772 5775 5777 5780 5783 5785 5788 5790 5792 5795 5797 5799 5801 5803 5806 5807 5809 5812 5814 5818 5822 5823 5823 5824 5826 5827 5829 5829 5829 5831 5832 5834 5840 5844 5844 5842 5842 5845 5845 5847 5848 5850 5853 5853 5854 5854 5855 5856
5710 5710 5710 5710 5710 5710 5711 5711 5712 5713 5714 5715 5716 5717 5718 5719 5720 5721 5722 5724 5726 5728 5730 5732 5734 5737 5739 5741 5744 5746 5749 5751 5755 5759 5757 5758 5762 5764 5765 5766 5769 5771 5774 5777 5779 5782 5784 5787 5790 5792 5794 5796 5798 5800 5802 5804 5807 5809 5812 5817 5819 5819 5819 5821 5822 5823 5826 5827 5827 5828 5828 5834 5840 5840 5840 5840 5841 5843 5844 5846 5847 5849 5851 5852 5853 5853 5854 5855
5705 5704 5704 5704 5704 5705 5705 5706 5707 5707 5708 5710 5711 5712 5713 5715 5716 5717 5718 5720 5721 5723 5725 5727 5730 5732 5734 5737 5739 5742 5745 5747 5752 5754 5753 5755 5759 5760 5762 5763 5765 5768 5770 5773 5776 5779 5781 5784 5787 5788 5791 5793 5795 5797 5799 5802 5805 5807 5810 5814 5815 5815 5815 5817 5818 5819 5822 5824 5825 5825 5827 5834 5838 5837 5837 5838 5840 5842 5843 5844 5845 5846 5848 5850 5851 5852 5853 5853
5699 5699 5699 5698 5699 5699 5700 5701 5701 5702 5703 5704 5705 5707 5708 5710 5711 5712 5714 5715 5717 5718 5720 5723 5725 5727 5730 5732 5735 5738 5740 5743 5747 5749 5750 5752 5755 5757 5759 5761 5762 5764 5767 5770 5773 5776 5778 5781 5783 5785 5788 5790 5792 5795 5796 5800 5802 5804 5808 5810 5811 5811 5811 5813 5813 5813 5817 5820 5821 5823 5827 5833 5834 5833 5835 5837 5838 5839 5841 5843 5844 5845 5846 5848 5849 5850 5851 5851
5693 5693 5693 5693 5693 5693 5694 5695 5696 5697 5698 5699 5700 5701 5703 5705 5706 5707 5709 5710 5712 5714 5716 5718 5720 5723 5725 5728 5731 5734 5736 5738 5742 5746 5748 5750 5752 5755 5756 5758 5759 5761 5763 5767 5770 5772 5775 5778 5780 5782 5785 5787 5790 5792 5794 5798 5800 5802 5805 5806 5807 5809 5809 5811 5810 5810 5815 5817 5818 5821 5827 5830 5830 5831 5834 5837 5837 5836 5839 5841 5843 5844 5844 5846 5847 5848 5849 5850
5687 5687 5687 5687 5687 5688 5689 5689 5691 5692 5693 5694 5696 5697 5698 5699 5701 5702 5704 5706 5707 5709 5711 5713 5715 5718 5721 5723 5726 5729 5732 5735 5739 5743 5745 5746 5748 5751 5753 5755 5756 5758 5760 5763 5766 5769 5772 5774 5777 5780 5782 5784 5787 5790 5792 5795 5797 5800 5802 5802 5804 5806 5807 5809 5808 5809 5813 5817 5818 5821 5825 5827 5829 5831 5833 5835 5834 5834 5836 5838 5843 5843 5843 5844 5846 5847 5847 5847
5682 5681 5681 5682 5682 5682 5683 5684 5685 5686 5688 5689 5691 5692 5693 5694 5696 5697 5699 5701 5703 5704 5706 5709 5711 5714 5716 5719 5722 5725 5729 5732 5734 5738 5741 5742 5744 5747 5750 5752 5753 5755 5757 5760 5762 5765 5768 5771 5774 5777 5779 5782 5784 5787 5789 5792 5795 5797 5799 5800 5801 5802 5805 5807 5806 5807 5812 5817 5818 5820 5824 5826 5829 5829 5829 5832 5831 5832 5834 5836 5841 5843 5842 5843 5844 5845 5846 5846
5676 5676 5676 5676 5676 5677 5677 5678 5679 5681 5682 5684 5686 5687 5688 5689 5690 5692 5694 5696 5698 5700 5702 5704 5706 5709 5711 5715 5717 5722 5727 5727 5727 5732 5736 5738 5741 5743 5747 5749 5750 5752 5754 5756 5759 5761 5765 5768 5771 5774 5776 5779 5781 5783 5786 5789 5792 5794 5796 5797 5798 5800 5802 5804 5804 5805 5811 5816 5817 5819 5822 5825 5828 5826 5825 5828 5829 5831 5833 5834 5839 5841 5841 5842 5843 5844 5844 5846
5670 5670 5670 5670 5671 5671 5672 5673 5674 5675 5677 5679 5680 5682 5683 5684 5686 5687 5689 5691 5693 5695 5697 5699 5702 5704 5707 5710 5714 5719 5722 5720 5721 5727 5732 5735 5738 5741 5743 5746 5748 5749 5751 5753 5755 5758 5762 5766 5769 5771 5773 5775 5777 5779 5782 5785 5788 5790 5792 5794 5795 5797 5800 5801 5801 5803 5809 5814 5816 5817 5820 5823 5826 5823 5822 5826 5827 5829 5832 5833 5836 5839 5839 5840 5841 5842 5843 5845
5664 5664 5664 5665 5665 5666 5667 5667 5668 5670 5671 5673 5674 5676 5678 5679 5680 5682 5684 5686 5688 5690 5692 5694 5697 5700 5703 5705 5710 5714 5715 5715 5717 5722 5729 5733 5735 5737 5739 5743 5745 5747 5748 5750 5752 5756 5759 5762 5765 5767 5769 5771 5774 5776 5779 5782 5784 5786 5787 5789 5792 5794 5797 5799 5800 5802 5807 5812 5814 5815 5817 5819 5821 5820 5820 5824 5825 5827 5832 5833 5834 5836 5837 5838 5839 5841 5842 5842
5657 5657 5658 5658 5659 5660 5661 5662 5663 5664 5666 5667 5669 5670 5672 5673 5675 5677 5678 5680 5682 5684 5687 5689 5692 5695 5698 5701 5707 5709 5709 5711 5713 5717 5725 5730 5731 5733 5736 5739 5742 5744 5745 5747 5750 5753 5756 5758 5761 5763 5766 5768 5771 5774 5777 5780 5782 5783 5784 5786 5789 5791 5794 5797 5799 5801 5806 5810 5812 5813 5814 5816 5817 5818 5818 5821 5823 5825 5829 5832 5833 5833 5834 5836 5837 5838 5839 5840
5650 5650 5650 5651 5653 5654 5655 5656 5657 5659 5660 5661 5663 5664 5666 5668 5669 5671 5673 5675 5677 5679 5682 5684 5687 5690 5693 5698 5702 5704 5704 5707 5709 5714 5723 5728 5728 5730 5732 5736 5739 5741 5743 5745 5747 5750 5752 5755 5757 5761 5763 5765 5768 5770 5773 5776 5778 5780 5783 5785 5787 5789 5792 5795 5797 5800 5804 5808 5809 5810 5812 5813 5816 5818 5817 5817 5821 5824 5827 5830 5831 5830 5832 5833 5834 5836 5837 5838
5642 5643 5643 5644 5646 5647 5648 5650 5651 5653 5654 5656 5657 5658 5660 5662 5663 5665 5667 5669 5671 5673 5676 5679 5682 5685 5689 5694 5697 5697 5700 5703 5705 5710 5719 5724 5724 5726 5729 5733 5736 5738 5740 5742 5744 5747 5749 5751 5754 5757 5759 5762 5765 5767 5768 5771 5774 5778 5781 5784 5786 5788 5791 5794 5796 5799 5803 5805 5807 5809 5810 5812 5815 5818 5816 5814 5818 5822 5825 5827 5829 5828 5829 5830 5832 5834 5835 5836
5634 5635 5636 5637 5638 5640 5641 5643 5644 5646 5648 5649 5650 5652 5654 5656 5657 5659 5661 5663 5665 5668 5671 5673 5677 5680 5684 5689 5691 5692 5695 5698 5701 5707 5715 5719 5719 5722 5726 5729 5732 5735 5737 5740 5742 5744 5746 5748 5750 5753 5756 5760 5762 5763 5765 5769 5773 5775 5778 5781 5784 5787 5790 5793 5795 5798 5801 5802 5805 5807 5808 5811 5814 5816 5815 5813 5815 5820 5822 5824 5827 5827 5827 5829 5831 5833 5833 5835
5626 5627 5628 5630 5630 5632 5634 5636 5638 5639 5641 5643 5644 5646 5648 5649 5651 5653 5655 5657 5660 5662 5665 5668 5671 5675 5679 5684 5685 5687 5691 5694 5697 5703 5710 5714 5715 5718 5721 5724 5728 5731 5734 5737 5739 5741 5743 5745 5747 5750 5754 5756 5758 5760 5764 5768 5771 5773 5775 5779 5782 5786 5789 5790 5793 5796 5798 5800 5802 5805 5806 5809 5812 5814 5814 5811 5813 5818 5820 5822 5824 5825 5825 5827 5829 5830 5831 5833
5618 5619 5620 5622 5623 5624 5626 5628 5630 5632 5634 5636 5638 5640 5641 5643 5645 5647 5649 5651 5654 5657 5660 5663 5666 5670 5675 5678 5681 5685 5688 5691 5696 5701 5706 5709 5710 5713 5717 5720 5724 5727 5730 5733 5735 5738 5740 5742 5745 5748 5751 5752 5755 5758 5762 5765 5768 5771 5775 5778 5781 5784 5786 5787 5790 5794 5796 5798 5800 5803 5805 5807 5810 5812 5811 5809 5811 5816 5818 5818 5820 5822 5824 5825 5826 5827 5829 5831
5609 5611 5612 5614 5615 5617 5619 5621 5623 5625 5628 5629 5632 5633 5635 5637 5639 5641 5643 5646 5649 5651 5654 5657 5662 5666 5669 5673 5677 5681 5683 5686 5692 5696 5700 5704 5706 5709 5713 5717 5720 5723 5726 5729 5732 5735 5737 5740 5743 5745 5747 5749 5752 5755 5758 5762 5767 5771 5774 5777 5780 5782 5784 5785 5788 5792 5795 5796 5798 5801 5803 5805 5807 5809 5809 5807 5809 5814 5815 5814 5815 5819 5822 5823 5824 5825 5827 5829
5600 5602 5604 5605 5607 5610 5611 5614 5616 5618 5621 5623 5625 5627 5628 5630 5632 5634 5637 5639 5642 5645 5648 5652 5657 5660 5663 5667 5671 5674 5676 5679 5685 5689 5693 5697 5701 5704 5708 5712 5715 5719 5722 5725 5729 5732 5734 5737 5739 5742 5745 5748 5751 5753 5757 5762 5766 5769 5772 5776 5778 5780 5782 5783 5785 5789 5792 5794 5797 5800 5801 5803 5805 5805 5807 5805 5807 5811 5811 5810 5812 5816 5820 5822 5823 5823 5825 5827
5590 5593 5596 5598 5600 5602 5604 5606 5609 5611 5614 5616 5618 5621 5622 5624 5626 5628 5631 5634 5636 5639 5642 5646 5651 5654 5656 5659 5663 5667 5670 5673 5679 5684 5688 5692 5696 5699 5703 5707 5711 5715 5718 5722 5726 5729 5732 5734 5737 5741 5745 5748 5750 5752 5756 5761 5764 5766 5768 5772 5774 5777 5781 5782 5782 5786 5790 5793 5796 5798 5799 5802 5803 5802 5804 5804 5804 5808 5807 5807 5810 5814 5818 5821 5821 5822 5823 5824
5581 5583 5586 5589 5592 5594 5596 5599 5601 5604 5607 5609 5612 5615 5617 5618 5620 5623 5626 5629 5632 5635 5639 5642 5646 5650 5651 5654 5658 5662 5665 5668 5674 5679 5683 5688 5691 5694 5699 5703 5707 5711 5715 5719 5722 5725 5728 5731 5735 5740 5744 5747 5748 5751 5755 5758 5760 5762 5764 5767 5770 5774 5779 5781 5781 5784 5788 5792 5795 5797 5797 5799 5801 5801 5802 5801 5802 5804 5803 5805 5809 5812 5815 5817 5819 5820 5821 5822
5572 5574 5577 5581 5584 5586 5589 5591 5594 5597 5600 5603 5606 5609 5610 5612 5615 5617 5621 5624 5628 5631 5634 5637 5641 5646 5648 5649 5653 5658 5661 5665 5669 5674 5677 5682 5686 5691 5695 5699 5704 5708 5711 5714 5718 5721 5724 5728 5734 5738 5741 5744 5746 5749 5753 5756 5758 5760 5762 5764 5767 5771 5777 5780 5780 5782 5786 5791 5793 5794 5795 5797 5800 5801 5800 5800 5800 5802 5802 5805 5808 5810 5811 5814 5816 5817 5819 5820
5563 5565 5567 5571 5575 5578 5581 5584 5587 5590 5593 5597 5600 5602 5604 5606 5610 5613 5616 5620 5624 5626 5629 5633 5637 5642 5643 5645 5649 5654 5658 5661 5665 5669 5673 5677 5683 5687 5690 5696 5701 5704 5707 5711 5715 5718 5722 5727 5732 5736 5739 5741 5743 5747 5751 5753 5755 5757 5759 5762 5765 5769 5774 5778 5780 5781 5785 5790 5793 5793 5794 5796 5798 5799 5800 5799 5800 5801 5802 5805 5806 5807 5808 5810 5812 5814 5816 5818
5553 5555 5557 5561 5566 5570 5573 5576 5580 5583 5587 5590 5593 5596 5598 5602 5605 5608 5611 5615 5620 5623 5626 5629 5632 5637 5640 5640 5644 5649 5654 5657 5661 5666 5670 5675 5680 5683 5687 5693 5697 5699 5704 5709 5713 5716 5720 5726 5731 5734 5736 5739 5741 5744 5748 5750 5752 5755 5758 5761 5764 5768 5772 5777 5779 5781 5785 5788 5791 5793 5794 5795 5795 5796 5798 5798 5799 5799 5800 5802 5803 5804 5805 5807 5809 5811 5814 5816
5542 5545 5547 5551 5557 5562 5566 5569 5573 5576 5580 5583 5587 5590 5593 5597 5600 5603 5606 5610 5615 5619 5621 5624 5627 5632 5635 5634 5638 5644 5649 5653 5658 5663 5668 5673 5678 5681 5684 5688 5692 5696 5701 5706 5709 5712 5717 5722 5727 5730 5733 5736 5739 5742 5745 5748 5750 5753 5756 5759 5764 5767 5771 5776 5778 5780 5782 5785 5789 5791 5792 5793 5793 5794 5795 5795 5796 5796 5797 5799 5800 5801 5803 5805 5808 5810 5813 5815
5532 5535 5538 5542 5548 5553 5558 5561 5565 5570 5573 5577 5581 5585 5588 5591 5595 5600 5603 5606 5612 5615 5617 5619 5624 5628 5630 5630 5636 5640 5644 5650 5655 5659 5663 5667 5673 5677 5680 5684 5689 5694 5698 5702 5705 5709 5713 5718 5722 5726 5730 5733 5736 5739 5743 5746 5748 5751 5755 5759 5763 5766 5768 5773 5777 5778 5778 5781 5786 5790 5791 5792 5793 5793 5793 5793 5794 5795 5795 5796 5797 5799 5802 5804 5806 5809 5811 5812
5521 5526 5530 5535 5539 5544 5550 5554 5559 5563 5567 5571 5576 5580 5583 5587 5592 5597 5600 5602 5608 5612 5613 5617 5621 5625 5627 5628 5632 5637 5642 5647 5651 5654 5658 5662 5668 5672 5675 5680 5686 5690 5694 5697 5700 5705 5710 5714 5718 5723 5726 5729 5732 5736 5741 5744 5746 5749 5754 5758 5762 5765 5767 5771 5775 5777 5776 5778 5783 5787 5789 5791 5791 5792 5793 5793 5793 5793 5792 5793 5795 5798 5802 5804 5805 5806 5807 5809
5511 5517 5522 5527 5531 5536 5542 5548 5552 5557 5562 5566 5571 5575 5579 5585 5590 5594 5596 5599 5604 5608 5609 5613 5617 5621 5623 5624 5628 5634 5639 5644 5647 5651 5655 5658 5664 5668 5671 5676 5682 5687 5690 5693 5698 5703 5707 5710 5715 5720 5723 5725 5729 5734 5739 5742 5744 5748 5753 5756 5760 5764 5767 5770 5772 5774 5775 5777 5780 5784 5787 5789 5789 5791 5792 5792 5790 5790 5790 5791 5793 5796 5800 5802 5803 5805 5806 5807
5502 5509 5515 5521 5525 5529 5535 5541 5546 5551 5556 5561 5566 5571 5577 5582 5586 5589 5592 5596 5601 5604 5606 5610 5613 5616 5618 5620 5624 5630 5635 5640 5645 5648 5651 5655 5661 5665 5668 5673 5678 5683 5686 5691 5696 5700 5704 5708 5712 5716 5720 5724 5728 5733 5737 5739 5742 5747 5751 5755 5759 5762 5765 5767 5768 5772 5774 5775 5777 5781 5784 5787 5789 5789 5789 5789 5787 5788 5789 5788 5788 5792 5797 5800 5802 5803 5805 5807
5494 5503 5509 5515 5520 5523 5528 5535 5540 5546 5551 5556 5562 5568 5573 5577 5581 5585 5589 5593 5597 5600 5604 5607 5609 5613 5616 5618 5622 5627 5631 5636 5640 5642 5644 5651 5658 5662 5666 5670 5674 5679 5683 5687 5692 5696 5701 5706 5708 5713 5717 5722 5726 5730 5733 5736 5739 5744 5749 5753 5756 5760 5762 5763 5764 5768 5771 5772 5774 5777 5780 5785 5787 5786 5786 5786 5785 5786 5787 5785 5786 5789 5793 5797 5800 5801 5803 5806
5488 5496 5503 5510 5515 5518 5523 5529 5535 5541 5546 5552 5558 5563 5568 5572 5576 5581 5586 5591 5594 5597 5601 5604 5607 5611 5614 5616 5620 5624 5628 5632 5636 5637 5640 5646 5653 5657 5661 5664 5669 5674 5679 5682 5688 5692 5697 5701 5705 5709 5714 5718 5722 5726 5730 5733 5736 5740 5745 5750 5753 5756 5759 5759 5761 5763 5764 5767 5771 5774 5778 5781 5783 5784 5784 5785 5784 5782 5782 5783 5786 5788 5791 5795 5797 5799 5801 5803
5485 5492 5499 5506 5511 5514 5518 5525 5531 5537 5543 5548 5554 5559 5564 5569 5573 5579 5585 5589 5592 5595 5599 5602 5605 5608 5611 5613 5617 5622 5626 5629 5632 5634 5637 5643 5649 5653 5657 5661 5665 5671 5675 5680 5685 5689 5693 5698 5703 5707 5710 5714 5718 5722 5726 5729 5732 5736 5741 5745 5749 5752 5754 5755 5756 5758 5760 5763 5767 5771 5775 5777 5778 5780 5781 5781 5781 5778 5778 5782 5785 5787 5790 5793 5795 5797 5799 5801
5484 5491 5496 5503 5508 5511 5514 5520 5527 5533 5540 5545 5550 5556 5561 5566 5573 5579 5583 5586 5589 5593 5596 5599 5602 5605 5607 5611 5615 5619 5623 5627 5631 5632 5635 5641 5647 5651 5655 5660 5663 5669 5674 5679 5682 5686 5690 5694 5698 5702 5706 5709 5714 5718 5722 5725 5728 5732 5737 5739 5743 5747 5749 5750 5753 5755 5759 5762 5765 5769 5772 5773 5773 5775 5776 5777 5777 5775 5775 5779 5782 5785 5788 5791 5793 5794 5796 5798
5483 5490 5495 5502 5507 5510 5513 5518 5524 5530 5536 5541 5547 5553 5559 5566 5572 5577 5581 5585 5587 5590 5594 5597 5600 5602 5605 5609 5613 5616 5620 5624 5628 5630 5633 5638 5644 5648 5652 5657 5661 5667 5673 5676 5680 5684 5687 5690 5694 5698 5702 5706 5711 5715 5719 5723 5726 5730 5735 5737 5740 5743 5745 5749 5752 5755 5758 5762 5764 5767 5768 5769 5768 5768 5770 5773 5773 5772 5773 5776 5779 5783 5786 5789 5791 5792 5794 5796
5483 5489 5495 5501 5505 5508 5512 5518 5522 5528 5533 5538 5544 5551 5558 5565 5570 5573 5579 5583 5585 5589 5592 5594 5597 5600 5603 5607 5611 5614 5618 5621 5624 5627 5630 5635 5642 5646 5650 5654 5658 5664 5669 5672 5677 5682 5685 5689 5693 5697 5700 5704 5708 5712 5715 5720 5723 5728 5732 5734 5736 5740 5744 5748 5752 5754 5757 5760 5762 5763 5763 5763 5763 5764 5767 5770 5771 5771 5772 5774 5778 5781 5784 5787 5789 5790 5792 5793
5485 5490 5495 5501 5504 5507 5511 5516 5521 5526 5531 5536 5544 5552 5558 5563 5566 5570 5575 5579 5582 5586 5589 5592 5595 5598 5601 5605 5608 5611 5615 5620 5623 5624 5627 5634 5640 5644 5648 5653 5656 5661 5666 5669 5674 5679 5684 5689 5691 5694 5698 5702 5706 5710 5713 5717 5720 5724 5727 5729 5734 5739 5742 5746 5750 5753 5754 5756 5758 5758 5757 5759 5761 5763 5765 5768 5769 5770 5771 5772 5776 5780 5783 5786 5787 5788 5790 5791
5487 5492 5497 5500 5503 5506 5510 5515 5519 5524 5530 5537 5545 5551 5556 5560 5564 5569 5573 5577 5581 5584 5587 5590 5594 5597 5600 5602 5605 5608 5613 5618 5621 5622 5625 5631 5637 5641 5646 5651 5655 5659 5664 5668 5672 5677 5682 5686 5689 5691 5696 5699 5702 5707 5711 5713 5716 5720 5724 5728 5734 5738 5739 5742 5747 5749 5750 5752 5754 5755 5755 5757 5760 5760 5761 5764 5767 5768 5769 5771 5775 5778 5782 5784 5786 5787 5788 5789
5489 5493 5497 5500 5503 5506 5510 5514 5518 5524 5530 5537 5544 5549 5554 5560 5565 5569 5573 5577 5581 5583 5587 5590 5593 5596 5599 5602 5605 5608 5611 5615 5618 5621 5624 5630 5635 5639 5644 5648 5652 5657 5662 5666 5670 5675 5680 5683 5686 5690 5694 5697 5698 5703 5707 5710 5713 5717 5722 5728 5732 5733 5735 5738 5741 5744 5746 5748 5750 5752 5752 5754 5756 5758 5760 5763 5766 5767 5769 5771 5774 5777 5780 5783 5784 5785 5786 5787
5492 5495 5498 5501 5504 5506 5510 5513 5518 5525 5531 5537 5543 5549 5555 5560 5565 5568 5572 5576 5579 5582 5586 5589 5591 5593 5597 5601 5605 5608 5612 5615 5618 5620 5623 5628 5633 5637 5641 5646 5650 5654 5659 5664 5667 5672 5677 5681 5684 5688 5692 5695 5696 5699 5703 5707 5711 5714 5717 5724 5729 5730 5732 5735 5737 5739 5742 5745 5747 5748 5749 5751 5752 5754 5758 5762 5764 5766 5768 5771 5773 5775 5777 5779 5781 5782 5784 5785
5494 5497 5499 5502 5504 5506 5510 5514 5520 5527 5533 5538 5544 5551 5556 5561 5565 5569 5571 5575 5578 5581 5585 5587 5590 5592 5595 5599 5603 5608 5612 5615 5618 5620 5624 5628 5632 5635 5639 5643 5648 5652 5657 5661 5665 5669 5673 5678 5682 5686 5689 5691 5691 5694 5700 5704 5708 5710 5711 5717 5723 5727 5730 5733 5735 5737 5740 5742 5743 5744 5745 5747 5750 5752 5755 5758 5760 5763 5766 5768 5770 5772 5774 5776 5777 5779 5781 5782
5495 5498 5500 5502 5504 5507 5511 5516 5523 5529 5534 5540 5546 5552 5557 5562 5566 5570 5573 5575 5577 5580 5584 5586 5590 5593 5596 5599 5602 5606 5611 5615 5619 5621 5624 5627 5630 5634 5637 5641 5645 5650 5655 5658 5662 5667 5671 5674 5679 5682 5685 5686 5688 5692 5699 5703 5706 5709 5710 5713 5719 5724 5727 5729 5732 5734 5737 5738 5740 5741 5743 5745 5748 5750 5752 5753 5755 5759 5762 5764 5767 5769 5770 5772 5773 5775 5777 5779
5497 5499 5501 5503 5506 5509 5514 5519 5525 5530 5535 5541 5548 5553 5558 5562 5566 5570 5573 5574 5576 5579 5583 5586 5590 5593 5595 5599 5602 5604 5609 5614 5618 5621 5624 5627 5630 5633 5636 5640 5643 5648 5653 5656 5660 5665 5669 5672 5676 5678 5680 5684 5688 5692 5697 5702 5705 5708 5710 5712 5717 5721 5723 5725 5728 5731 5733 5735 5738 5740 5741 5742 5745 5748 5748 5749 5752 5757 5759 5762 5764 5765 5767 5768 5770 5772 5774 5776
5499 5501 5503 5506 5508 5511 5515 5521 5527 5532 5537 5542 5549 5554 5558 5562 5566 5569 5571 5573 5575 5579 5583 5587 5590 5593 5595 5598 5601 5603 5606 5612 5617 5622 5626 5628 5631 5633 5636 5639 5642 5646 5651 5655 5659 5664 5667 5670 5674 5676 5678 5683 5688 5692 5695 5699 5703 5705 5707 5710 5714 5718 5721 5723 5726 5729 5731 5734 5736 5738 5738 5739 5741 5744 5745 5746 5750 5755 5757 5759 5761 5762 5763 5765 5767 5769 5771 5773
5501 5504 5506 5509 5511 5514 5517 5522 5528 5533 5538 5543 5549 5554 5558 5562 5565 5568 5571 5574 5575 5577 5582 5586 5589 5593 5595 5598 5601 5603 5605 5611 5616 5622 5626 5628 5631 5634 5636 5639 5642 5644 5648 5653 5658 5661 5665 5668 5670 5673 5677 5680 5685 5688 5690 5693 5697 5700 5704 5708 5710 5714 5718 5721 5724 5727 5729 5731 5734 5735 5735 5736 5738 5740 5742 5743 5747 5752 5754 5755 5756 5757 5759 5762 5764 5766 5768 5769
5505 5507 5509 5512 5514 5517 5521 5526 5530 5534 5539 5545 5550 5554 5558 5562 5565 5567 5571 5574 5575 5575 5580 5585 5589 5592 5595 5597 5600 5602 5605 5609 5615 5619 5625 5628 5631 5634 5636 5639 5643 5646 5649 5654 5657 5660 5663 5666 5669 5671 5674 5676 5679 5682 5685 5689 5692 5695 5699 5704 5708 5710 5714 5717 5721 5724 5725 5727 5731 5732 5732 5733 5735 5737 5739 5741 5744 5748 5750 5750 5752 5753 5755 5758 5760 5762 5764 5766
5508 5509 5511 5514 5517 5520 5525 5529 5532 5537 5542 5547 5551 5555 5559 5561 5564 5567 5570 5573 5575 5575 5578 5584 5588 5591 5594 5597 5600 5603 5605 5609 5612 5616 5621 5625 5629 5632 5635 5638 5643 5647 5651 5654 5656 5659 5662 5665 5668 5671 5673 5675 5678 5682 5685 5689 5692 5695 5697 5701 5704 5708 5712 5715 5718 5721 5723 5725 5727 5727 5728 5730 5733 5734 5736 5738 5740 5744 5746 5747 5748 5750 5751 5753 5756 5758 5761 5763
5512 5513 5514 5517 5519 5523 5528 5532 5535 5540 5545 5549 5553 5556 5559 5561 5564 5567 5569 5572 5574 5575 5578 5582 5587 5590 5594 5597 5601 5605 5608 5609 5610 5612 5616 5621 5626 5631 5633 5635 5639 5643 5648 5652 5654 5657 5660 5663 5667 5670 5672 5676 5680 5683 5686 5688 5691 5694 5698 5699 5702 5706 5710 5712 5714 5718 5722 5723 5724 5724 5726 5728 5730 5731 5733 5734 5736 5740 5743 5744 5745 5747 5748 5750 5753 5755 5757 5760
5515 5516 5518 5521 5523 5527 5531 5535 5539 5543 5547 5550 5554 5557 5559 5561 5563 5566 5569 5571 5574 5576 5578 5581 5585 5589 5593 5597 5601 5605 5608 5610 5611 5613 5615 5618 5624 5630 5634 5635 5636 5639 5645 5649 5653 5655 5657 5660 5664 5667 5671 5675 5679 5681 5682 5684 5687 5690 5694 5697 5700 5702 5706 5708 5711 5714 5718 5720 5721 5722 5723 5725 5727 5728 5730 5731 5734 5737 5740 5742 5743 5744 5746 5748 5750 5752 5754 5757
5517 5519 5522 5524 5527 5530 5533 5536 5540 5545 5549 5552 5555 5558 5560 5562 5564 5566 5568 5570 5574 5578 5581 5584 5587 5590 5593 5597 5600 5604 5608 5610 5611 5614 5616 5619 5622 5627 5632 5635 5636 5638 5642 5647 5650 5652 5654 5657 5660 5663 5668 5672 5675 5675 5676 5678 5682 5684 5687 5690 5694 5697 5699 5703 5707 5710 5713 5715 5717 5718 5720 5721 5723 5725 5726 5728 5731 5734 5736 5738 5740 5741 5742 5744 5747 5749 5751 5753
5519 5521 5524 5527 5530 5533 5536 5539 5543 5547 5550 5554 5557 5559 5561 5564 5566 5567 5568 5571 5575 5579 5582 5585 5588 5591 5594 5596 5599 5602 5605 5607 5610 5613 5616 5619 5621 5623 5628 5633 5635 5637 5640 5643 5645 5648 5651 5654 5657 5660 5664 5668 5670 5671 5672 5675 5678 5680 5682 5685 5689 5693 5695 5699 5703 5706 5708 5710 5711 5712 5714 5717 5719 5722 5724 5726 5729 5731 5733 5735 5737 5738 5740 5741 5744 5746 5749 5751
5521 5524 5527 5530 5533 5537 5540 5543 5546 5549 5553 5555 5558 5560 5563 5565 5568 5570 5572 5573 5576 5578 5581 5584 5587 5591 5594 5597 5599 5601 5602 5604 5607 5611 5615 5618 5621 5623 5626 5630 5634 5637 5638 5641 5643 5645 5648 5651 5654 5658 5662 5665 5668 5670 5672 5674 5676 5679 5682 5685 5688 5691 5693 5696 5698 5701 5704 5705 5706 5708 5710 5713 5717 5719 5722 5724 5726 5728 5730 5732 5734 5735 5737 5739 5742 5744 5746 5749
5525 5527 5530 5534 5536 5539 5543 5546 5549 5552 5554 5557 5559 5562 5564 5567 5569 5571 5573 5575 5576 5578 5580 5584 5587 5590 5593 5597 5600 5602 5603 5604 5607 5611 5615 5618 5621 5624 5626 5628 5632 5636 5637 5639 5641 5643 5646 5650 5653 5657 5661 5663 5666 5668 5671 5674 5676 5678 5681 5684 5687 5688 5690 5692 5694 5697 5700 5702 5704 5707 5709 5711 5714 5717 5720 5722 5724 5725 5727 5729 5731 5733 5734 5737 5739 5741 5744 5746